This demonstration page uses our WeatherBlox Daily Observations layout. Learn more.

Left ArrowRight Arrow

Hourly Observations for October 29, 2016

Temp ( °F °C ) Dew Point ( °F °C ) Humidity (%) Winds ( mph kmh ) Pressure ( in mb ) Visibility ( mi km ) Precip ( " mm )
12:54 am 00:54 Clear 55 12.8 51 10.6 87 87 Calm 29.84 1010 10 16.0934 0 0
1:54 am 01:54 Clear 52 11.1 50 10 93 93 Calm 29.85 1011 10 16.0934 0 0
2:54 am 02:54 Clear 54 12.2 51 10.6 90 90 Calm 29.85 1011 10 16.0934 0 0
3:54 am 03:54 Clear 57 13.9 52 11.1 83 83 S 3 6 29.85 1011 10 16.0934 0 0
4:54 am 04:54 Clear 57 13.9 54 12.2 90 90 SSE 8 13 29.83 1010 10 16.0934 0 0
5:54 am 05:54 Clear 57 13.9 54 12.2 90 90 SW 3 6 29.85 1011 10 16.0934 0 0
6:54 am 06:54 Clear 52 11.1 51 10.6 97 97 N 8 13 29.87 1012 10 16.0934 0 0
7:54 am 07:54 Clear 52 11.1 50 10 93 93 Calm 29.88 1012 9 14.48406 0 0
8:54 am 08:54 Sunny 55 12.8 51 10.6 87 87 Calm 29.88 1012 10 16.0934 0 0
9:54 am 09:54 Sunny 59 15 55 12.8 87 87 S 3 6 29.88 1012 10 16.0934 0 0
10:54 am 10:54 Sunny 64 17.8 58 14.4 81 81 N 6 9 29.89 1012 10 16.0934 0 0
11:54 am 11:54 Sunny 69 20.6 59 15 70 70 N 6 9 29.89 1012 10 16.0934 0 0
12:54 pm 12:54 Sunny 70 21.1 59 15 68 68 ESE 3 6 29.88 1012 10 16.0934 0 0
1:54 pm 13:54 Sunny 72 22.2 58 14.4 61 61 SE 5 7 29.88 1012 10 16.0934 0 0
2:54 pm 14:54 Sunny 73 22.8 58 14.4 59 59 NNE 6 9 29.88 1012 10 16.0934 0 0
3:54 pm 15:54 Sunny 74 23.3 56 13.3 54 54 N 16 26 29.89 1012 10 16.0934 0 0
4:54 pm 16:54 Sunny 69 20.6 54 12.2 59 59 N 18 30 29.92 1013 10 16.0934 0 0
5:54 pm 17:54 Sunny 65 18.3 53 11.7 66 66 N 16 26 29.96 1015 10 16.0934 0 0
6:54 pm 18:54 Clear 61 16.1 52 11.1 72 72 N 22 35 30.01 1016 10 16.0934 0 0
7:54 pm 19:54 Clear 58 14.4 51 10.6 78 78 N 16 26 30.06 1018 9 14.48406 0 0
8:54 pm 20:54 Mostly Clear 57 13.9 50 10 78 78 NNE 13 20 30.08 1019 10 16.0934 0 0
9:17 pm 21:17 Mostly Cloudy 57 13.9 50 10 78 78 N 14 22 30.09 1019 10 16.0934 0 0
9:54 pm 21:54 Cloudy 57 13.9 49 9.4 74 74 N 21 33 30.11 1020 10 16.0934 0 0
10:54 pm 22:54 Cloudy 55 12.8 47 8.3 74 74 N 16 26 30.13 1020 10 16.0934 0 0
11:27 pm 23:27 Cloudy 54 12.2 46 7.8 75 75 N 20 31 30.15 1021 10 16.0934 0 0
11:54 pm 23:54 Cloudy 54 12 45 7 72 72 NNE 18 30 30.15 1021 10 16.0934 0 0

Powered by AerisWeather